Location: Newark
(33.6333°S, 78.8500°W)
Time: 19:20:59
(UTC+00:00)

Tiros 1 despin weight - Pass Details

Date: 23 September 2019
Orbit: 593 x 643 km, 48.2° (Epoch: 22 October)

Event Time Altitude Azimuth Distance (km) Brightness Sun altitude
Rises 09:12:58 0° 226° (SW) 2,944 - -23.6°
Reaches altitude 10° 09:15:40 10° 212° (SSW) 2,040 - -23.0°
Exits shadow 09:16:20 13° 206° (SSW) 1,845 ? -22.9°
Maximum altitude 09:19:32 24° 157° (SSE) 1,323 ? -22.3°
Drops below altitude 10° 09:23:24 10° 102° (ESE) 2,045 ? -21.5°
Sets 09:26:06 0° 88° (E) 2,953 ? -20.9°
